Regional Weather Roundup
Issued by NWS

Home | Current Version | Previous Version | Text Only | Print | Product List | Glossary Off
Versions: 1 2 3 4 5 6 7 8 9 10 11 12 13 14 15 16 17 18 19 20 21 22 23 24 25 26 27 28 29 30 31 32 33 34 35 36 37 38 39 40 41 42 43 44 45 46 47 48 49 50

000
ASUS43 KOAX 171202
RWRNE

WEATHER ROUNDUP FOR NEBRASKA
NATIONAL WEATHER SERVICE OMAHA NE
700 AM CDT WED SEP 17 2014

NOTES: SATELLITE DATA IS BEING USED TO AUGMENT CLOUD COVER ABOVE
       12000 FEET.
       "FAIR" INDICATES FEW OR NO CLOUDS BELOW 12,000 FEET WITH NO
       SIGNIFICANT WEATHER AND/OR OBSTRUCTIONS TO VISIBILITY.

  * THESE STATIONS DO NOT REPORT WEATHER SUCH AS RAIN...SNOW OR FOG.

NEZ001>004-019>022-054>056-171300-
NEBRASKA PANHANDLE

CITY           SKY/WX    TMP DP  RH WIND       PRES   REMARKS
SCOTTSBLUFF    PTCLDY    51  47  86 N3        29.98R
6HR MIN TEMP:  50; 6HR MAX TEMP:  59;

ALLIANCE       PTCLDY    48  45  89 N3        29.98R
6HR MIN TEMP:  44; 6HR MAX TEMP:  54;

CHADRON        PTCLDY    46  44  93 SW7       29.95F
6HR MIN TEMP:  46; 6HR MAX TEMP:  57;

KIMBALL        CLEAR     52  40  62 W7        30.02S
SIDNEY         CLEAR     51  43  74 NW7       30.01R
6HR MIN TEMP:  47; 6HR MAX TEMP:  55;

$$

NEZ057>060-069>072-079>082-171300-
SOUTHWEST NEBRASKA

CITY           SKY/WX    TMP DP  RH WIND       PRES   REMARKS
NORTH PLATTE   FOG       48  48 100 CALM      29.95F VSB 1/4
6HR MIN TEMP:  46; 6HR MAX TEMP:  52;

IMPERIAL       CLEAR     48  46  93 W7        29.96R
6HR MIN TEMP:  48; 6HR MAX TEMP:  56;

LEXINGTON      CLEAR     45  44  97 W3        29.94S FOG
MCCOOK         FOG       47  47 100 W3        29.94S VSB 1/4
6HR MIN TEMP:  47; 6HR MAX TEMP:  57;

OGALLALA       FOG       49  49  99 CALM      29.96S VSB 3/4
$$

NEZ005>010-023>029-035>040-094-171300-
NORTH CENTRAL NEBRASKA

CITY           SKY/WX    TMP DP  RH WIND       PRES   REMARKS
VALENTINE      CLEAR     46  45  96 CALM      29.92S
6HR MIN TEMP:  45; 6HR MAX TEMP:  51;

BROKEN BOW     FOG       44  43  96 CALM      29.94S VSB 1
6HR MIN TEMP:  44; 6HR MAX TEMP:  51;

O`NEILL        FOG       49  49 100 CALM      29.92S VSB 1
ORD            CLEAR     46  45  96 CALM      29.93S
6HR MIN TEMP:  44; 6HR MAX TEMP:  50;

THEDFORD       CLEAR     52  52  99 CALM      29.96S
$$

NEZ041-046>049-061>064-073>077-083>087-171300-
SOUTH CENTRAL NEBRASKA

CITY           SKY/WX    TMP DP  RH WIND       PRES   REMARKS
GRAND ISLAND   CLEAR     49  47  93 NW3       29.94R
6HR MIN TEMP:  49; 6HR MAX TEMP:  57;

HASTINGS       CLEAR     50  46  86 N5        29.93R
6HR MIN TEMP:  49; 6HR MAX TEMP:  60;

HEBRON         CLOUDY    58  55  90 CALM      29.91R
HOLDREGE       CLEAR     47  46  94 CALM      29.93S
KEARNEY *      CLEAR     48  46  93 NW5       29.95R
YORK           CLEAR     48  48 100 NE3       29.93S
$$

NEZ011>018-030>034-042>045-171300-
NORTHEAST NEBRASKA

CITY           SKY/WX    TMP DP  RH WIND       PRES   REMARKS
NORFOLK        CLEAR     48  47  96 SW3       29.93S
6HR MIN TEMP:  47; 6HR MAX TEMP:  54;

ALBION         CLEAR     46  44  92 CALM      29.94S
BLAIR          CLEAR     58  53  84 E5        29.93S
COLUMBUS *     CLEAR     46  45  93 CALM      29.94S
TEKAMAH        FOG       52  50  93 CALM      29.93S VSB 1
6HR MIN TEMP:  51; 6HR MAX TEMP:  60;

WAYNE          CLEAR     48  48  98 CALM      29.93S
$$

NEZ050>053-065>068-078-088>093-171300-
SOUTHEAST NEBRASKA

CITY           SKY/WX    TMP DP  RH WIND       PRES   REMARKS
LINCOLN        CLEAR     53  51  93 N3        29.93R
6HR MIN TEMP:  53; 6HR MAX TEMP:  63;

OMAHA EPPLEY   PTCLDY    58  52  80 CALM      29.93F
6HR MIN TEMP:  57; 6HR MAX TEMP:  63;

BEATRICE       CLOUDY    62  59  91 CALM      29.91S
FALLS CITY     LGT RAIN  62  59  90 CALM      29.91S
6HR MIN TEMP:  60; 6HR MAX TEMP:  63; 6HR PCP:  0.01;

NEBRASKA CITY  PTCLDY    57  55  91 CALM      29.92S
PLATTSMOUTH    CLEAR     56  53  89 E3        29.92F
$$

NEZ044-045-051>053-067-171300-
OMAHA AREA

CITY           SKY/WX    TMP DP  RH WIND       PRES   REMARKS
OMAHA EPPLEY   PTCLDY    58  52  80 CALM      29.93F
6HR MIN TEMP:  57; 6HR MAX TEMP:  63;

BLAIR          CLEAR     58  53  84 E5        29.93S
MILLARD        PTCLDY    56  55  93 CALM      29.92S
OFFUTT AFB     CLEAR     54  54 100 E2        29.92F
PLATTSMOUTH    CLEAR     56  53  89 E3        29.92F
WAHOO          FAIR      53  50  90 CALM      29.93S
$$


USA.gov is the U.S. government's official web portal to all federal, state and local government web resources and services.